Location: Unspecified
(0.0000°N, 0.0000°E)
Time: 09:47:22
(UTC+02:00)

GPS 2-12 Rocket1 - Visible Passes

Search period start: 05 July 2015 00:00
Search period end: 15 July 2015 00:00
Orbit: 589 x 656 km, 20.0° (Epoch: 04 July)

Date Brightness Start Highest point End Pass type
(mag) Time Alt. Az. Time Alt. Az. Time Alt. Az.
05 Jul 4.2 20:29:49 10° NW 20:34:11 35° NNE 20:38:31 10° E visible
05 Jul 4.3 22:13:06 10° WNW 22:16:11 39° W 22:16:11 39° W visible
06 Jul 5.1 06:56:48 12° SSW 06:58:45 15° SSE 07:01:20 10° SE visible
06 Jul 3.4 20:46:29 10° WNW 20:51:13 61° NNE 20:55:02 15° E visible
06 Jul 5.4 22:30:25 10° W 22:32:05 20° WSW 22:32:05 20° WSW visible
07 Jul 4.6 07:12:44 12° SSW 07:15:55 23° SSE 07:19:31 10° ESE visible
07 Jul 3.1 21:03:25 10° WNW 21:08:14 77° SSW 21:10:57 25° ESE visible
08 Jul 3.9 07:28:50 10° SW 07:32:59 39° SSE 07:37:11 10° E visible
08 Jul 3.8 21:20:39 10° W 21:25:14 43° SSW 21:26:52 31° SSE visible
09 Jul 5.0 06:07:33 19° SE 06:07:33 19° SE 06:09:48 10° ESE visible
09 Jul 4.5 21:38:14 10° WSW 21:42:18 26° SSW 21:42:48 26° S visible
10 Jul 3.9 06:23:29 35° SSE 06:23:29 35° SSE 06:27:33 10° E visible
10 Jul 5.2 21:56:16 10° WSW 21:58:44 17° SSW 21:58:44 17° SSW visible
11 Jul 3.1 06:39:26 46° SW 06:40:30 64° SSE 06:44:53 10° ENE visible
11 Jul 4.5 20:28:26 10° W 20:32:39 29° SSW 20:36:49 10° SE visible
12 Jul 3.0 06:55:21 29° W 06:57:30 70° NNW 07:01:55 10° ENE visible
12 Jul 5.1 20:46:21 10° WSW 20:49:46 19° SSW 20:53:07 10° SSE visible
13 Jul 5.6 05:34:12 17° E 05:34:12 17° E 05:35:20 10° E visible
13 Jul 3.9 07:11:16 15° W 07:14:31 38° NNW 07:18:38 10° NE visible
13 Jul 5.4 21:04:52 10° SW 21:06:59 13° SSW 21:09:02 10° SSE visible
14 Jul 4.7 05:50:06 30° ENE 05:50:06 30° ENE 05:52:25 10° ENE visible
14 Jul 4.7 07:28:03 10° WNW 07:31:35 23° NNW 07:35:04 10° NNE visible
